YAOGAN-41

Last updated on Thu Oct 30 2025 00:02:52 GMT+0000 (Coordinated Universal Time)

1 58582U 23197A 25302.54074032 -.00000357 00000+0 00000+0 0 9991 2 58582 3.5709 310.1308 0012786 202.7135 203.1563 1.00271034 7010
UTC large
Height (km)
Speed (km/s)
/
Latitude / Longitude
Inclination (degrees)
Orbital Period (minutes)
Azimuth
Elevation
Range (km)
Doppler Factor

Next 0 passes for location: London (51.5072 / 0.1276)

Sorry there are no passes over London.